• In Romania
  • List of Countries
  • For 7 days
  • Water Temperature
  • Satellite Maps
  • Weather Map
  • Weather Widgets
  • user-avatar
    Login

    Hourly Weather Coro

    Today, 16 August, Thursday

    Time Temperature Precipitation Wind Pressure Humidity
    00:00 +27°C° 0 mm 5 mps 757 mmHg 84%
    01:00 +27°C° 0 mm 6 mps 757 mmHg 85%
    02:00 +27°C° 0 mm 6 mps 757 mmHg 85%
    03:00 +27°C° 0 mm 6 mps 757 mmHg 85%
    04:00 +27°C° 0 mm 6 mps 757 mmHg 85%
    05:00 +28°C° 0 mm 6 mps 757 mmHg 82%
    06:00 +28°C° 0 mm 6 mps 757 mmHg 78%
    07:00 +29°C° 0 mm 6 mps 757 mmHg 75%
    08:00 +32°C° 0 mm 6 mps 758 mmHg 65%
    09:00 +34°C° 0 mm 6 mps 758 mmHg 55%
    10:00 +38°C° 0 mm 6 mps 758 mmHg 44%
    11:00 +39°C° 0 mm 7 mps 757 mmHg 40%
    12:00 +40°C° 0 mm 7 mps 757 mmHg 36%
    13:00 +41°C° 0 mm 7 mps 756 mmHg 32%
    14:00 +41°C° 0 mm 8 mps 756 mmHg 33%
    15:00 +40°C° 0 mm 8 mps 755 mmHg 34%
    16:00 +40°C° 0 mm 8 mps 755 mmHg 35%
    17:00 +38°C° 0 mm 8 mps 755 mmHg 45%
    18:00 +34°C° 0 mm 8 mps 756 mmHg 54%
    19:00 +32°C° 0 mm 7 mps 756 mmHg 63%
    20:00 +30°C° 0 mm 7 mps 757 mmHg 70%
    21:00 +29°C° 0 mm 7 mps 757 mmHg 76%
    22:00 +28°C° 0 mm 7 mps 758 mmHg 83%
    23:00 +28°C° 0 mm 7 mps 758 mmHg 83%

    Tomorrow, 17 August, Friday

    Time Temperature Precipitation Wind Pressure Humidity
    00:00 +28°C° 0 mm 6 mps 757 mmHg 83%
    01:00 +28°C° 0 mm 6 mps 757 mmHg 83%
    02:00 +28°C° 0 mm 6 mps 757 mmHg 84%
    03:00 +28°C° 0 mm 6 mps 757 mmHg 85%
    04:00 +27°C° 0 mm 6 mps 757 mmHg 87%
    05:00 +28°C° 0 mm 6 mps 757 mmHg 83%
    06:00 +29°C° 0 mm 6 mps 757 mmHg 80%
    07:00 +29°C° 0 mm 6 mps 757 mmHg 76%
    08:00 +32°C° 0 mm 6 mps 757 mmHg 65%
    09:00 +35°C° 0 mm 7 mps 757 mmHg 55%
    10:00 +38°C° 0 mm 7 mps 757 mmHg 44%
    11:00 +39°C° 0 mm 7 mps 757 mmHg 41%
    12:00 +40°C° 0 mm 8 mps 756 mmHg 38%
    13:00 +41°C° 0 mm 8 mps 755 mmHg 34%
    14:00 +41°C° 0 mm 8 mps 755 mmHg 36%
    15:00 +40°C° 0 mm 9 mps 755 mmHg 38%
    16:00 +39°C° 0 mm 9 mps 754 mmHg 40%
    17:00 +37°C° 0 mm 9 mps 755 mmHg 50%
    18:00 +34°C° 0 mm 8 mps 755 mmHg 59%
    19:00 +32°C° 0 mm 8 mps 756 mmHg 68%
    20:00 +31°C° 0 mm 8 mps 756 mmHg 73%
    21:00 +29°C° 0 mm 7 mps 757 mmHg 77%
    22:00 +29°C° 0 mm 7 mps 758 mmHg 82%
    23:00 +29°C° 0 mm 7 mps 757 mmHg 82%

    Day after tomorrow, 18 August, Saturday

    Time Temperature Precipitation Wind Pressure Humidity
    00:00 +29°C° 0 mm 7 mps 757 mmHg 82%
    01:00 +28°C° 0 mm 6 mps 756 mmHg 82%
    02:00 +28°C° 0 mm 6 mps 756 mmHg 84%
    03:00 +28°C° 0 mm 6 mps 756 mmHg 85%
    04:00 +28°C° 0 mm 6 mps 756 mmHg 87%
    05:00 +28°C° 0 mm 6 mps 756 mmHg 83%
    06:00 +29°C° 0 mm 6 mps 756 mmHg 79%
    07:00 +29°C° 0 mm 6 mps 756 mmHg 75%
    08:00 +33°C° 0 mm 7 mps 757 mmHg 65%
    09:00 +35°C° 0 mm 7 mps 757 mmHg 55%
    10:00 +38°C° 0 mm 7 mps 757 mmHg 44%
    11:00 +39°C° 0 mm 7 mps 756 mmHg 42%
    12:00 +40°C° 0 mm 7 mps 756 mmHg 39%
    13:00 +41°C° 0 mm 8 mps 755 mmHg 36%
    14:00 +40°C° 0 mm 8 mps 754 mmHg 37%
    15:00 +39°C° 0 mm 8 mps 754 mmHg 38%
    16:00 +39°C° 0 mm 8 mps 753 mmHg 39%
    17:00 +37°C° 0 mm 8 mps 754 mmHg 46%
    18:00 +34°C° 0 mm 8 mps 754 mmHg 53%
    19:00 +33°C° 0 mm 8 mps 755 mmHg 59%
    20:00 +32°C° 0 mm 8 mps 755 mmHg 65%
    21:00 +30°C° 0 mm 7 mps 756 mmHg 72%
    22:00 +29°C° 0 mm 7 mps 756 mmHg 78%
    23:00 +28°C° 0 mm 6 mps 756 mmHg 80%

    19 August, Sunday

    Time Temperature Precipitation Wind Pressure Humidity
    00:00 +28°C° 0 mm 6 mps 755 mmHg 82%
    01:00 +27°C° 0 mm 5 mps 755 mmHg 84%
    02:00 +27°C° 0 mm 5 mps 755 mmHg 82%
    03:00 +27°C° 0 mm 5 mps 755 mmHg 81%
    04:00 +27°C° 0 mm 4 mps 755 mmHg 79%
    05:00 +28°C° 0 mm 5 mps 755 mmHg 76%
    06:00 +28°C° 0 mm 5 mps 756 mmHg 74%
    07:00 +29°C° 0 mm 5 mps 756 mmHg 71%
    08:00 +32°C° 0 mm 5 mps 756 mmHg 61%
    09:00 +35°C° 0 mm 6 mps 756 mmHg 50%
    10:00 +38°C° 0 mm 6 mps 756 mmHg 40%
    11:00 +40°C° 0 mm 6 mps 756 mmHg 36%
    12:00 +41°C° 0 mm 7 mps 755 mmHg 32%
    13:00 +43°C° 0 mm 7 mps 754 mmHg 29%
    14:00 +43°C° 0 mm 8 mps 754 mmHg 30%
    15:00 +41°C° 0 mm 8 mps 754 mmHg 31%
    16:00 +41°C° 0 mm 8 mps 753 mmHg 31%
    17:00 +39°C° 0 mm 8 mps 754 mmHg 38%
    18:00 +37°C° 0 mm 8 mps 755 mmHg 44%
    19:00 +34°C° 0 mm 7 mps 755 mmHg 50%
    20:00 +33°C° 0 mm 7 mps 756 mmHg 55%
    21:00 +32°C° 0 mm 6 mps 756 mmHg 61%
    22:00 +29°C° 0 mm 6 mps 757 mmHg 66%
    23:00 +29°C° 0 mm 6 mps 756 mmHg 70%

    20 August, Monday

    Time Temperature Precipitation Wind Pressure Humidity
    00:00 +28°C° 0 mm 6 mps 756 mmHg 73%
    01:00 +27°C° 0 mm 6 mps 756 mmHg 76%
    02:00 +27°C° 0 mm 6 mps 756 mmHg 76%
    03:00 +27°C° 0 mm 6 mps 756 mmHg 76%
    04:00 +27°C° 0 mm 6 mps 756 mmHg 76%
    05:00 +28°C° 0 mm 6 mps 756 mmHg 71%
    06:00 +29°C° 0 mm 6 mps 757 mmHg 66%
    07:00 +30°C° 0 mm 6 mps 757 mmHg 61%
    08:00 +33°C° 0 mm 6 mps 757 mmHg 54%
    09:00 +36°C° 0 mm 7 mps 757 mmHg 46%
    10:00 +39°C° 0 mm 7 mps 757 mmHg 39%
    11:00 +40°C° 0 mm 8 mps 756 mmHg 36%
    12:00 +41°C° 0 mm 8 mps 756 mmHg 34%
    13:00 +43°C° 0 mm 9 mps 755 mmHg 32%
    14:00 +43°C° 0 mm 9 mps 755 mmHg 33%
    15:00 +42°C° 0 mm 9 mps 754 mmHg 34%
    16:00 +40°C° 0 mm 9 mps 754 mmHg 35%
    17:00 +38°C° 0 mm 9 mps 755 mmHg 42%
    18:00 +35°C° 0 mm 9 mps 755 mmHg 49%
    19:00 +33°C° 0 mm 8 mps 756 mmHg 56%
    20:00 +32°C° 0 mm 8 mps 756 mmHg 64%
    21:00 +30°C° 0 mm 7 mps 757 mmHg 72%
    22:00 +29°C° 0 mm 7 mps 757 mmHg 80%
    23:00 +28°C° 0 mm 7 mps 757 mmHg 81%

    21 August, Tuesday

    Time Temperature Precipitation Wind Pressure Humidity
    00:00 +28°C° 0 mm 7 mps 756 mmHg 83%
    01:00 +28°C° 0 mm 7 mps 756 mmHg 85%
    02:00 +28°C° 0 mm 6 mps 756 mmHg 85%
    03:00 +28°C° 0 mm 6 mps 756 mmHg 85%
    04:00 +28°C° 0 mm 6 mps 756 mmHg 85%
    05:00 +28°C° 0 mm 6 mps 756 mmHg 81%
    06:00 +29°C° 0 mm 7 mps 757 mmHg 78%
    07:00 +30°C° 0 mm 7 mps 757 mmHg 74%
    08:00 +33°C° 0 mm 7 mps 757 mmHg 63%
    09:00 +35°C° 0 mm 7 mps 757 mmHg 53%
    10:00 +39°C° 0 mm 7 mps 757 mmHg 42%
    11:00 +40°C° 0 mm 7 mps 756 mmHg 39%
    12:00 +41°C° 0 mm 8 mps 755 mmHg 35%
    13:00 +43°C° 0 mm 9 mps 754 mmHg 32%
    14:00 +42°C° 0 mm 9 mps 754 mmHg 34%
    15:00 +42°C° 0 mm 9 mps 754 mmHg 37%
    16:00 +40°C° 0 mm 9 mps 754 mmHg 39%
    17:00 +38°C° 0 mm 9 mps 754 mmHg 48%
    18:00 +35°C° 0 mm 8 mps 755 mmHg 57%
    19:00 +32°C° 0 mm 8 mps 755 mmHg 66%
    20:00 +31°C° 0 mm 8 mps 756 mmHg 71%
    21:00 +30°C° 0 mm 7 mps 756 mmHg 76%
    22:00 +29°C° 0 mm 7 mps 756 mmHg 81%
    23:00 +29°C° 0 mm 7 mps 756 mmHg 81%
    Show more